Location: Hartford
(41.7640°N, 72.6860°W)
Time: 16:30:15
(UTC-04:00)

ISS - Visible Passes

Search period start: 28 July 2014 00:00
Search period end: 07 August 2014 00:00
Orbit: 411 x 420 km, 51.6° (Epoch: 28 July)

Date Brightness Start Highest point End Pass type
(mag) Time Alt. Az. Time Alt. Az. Time Alt. Az.
28 Jul -0.2 01:25:42 15° NE 01:25:42 15° NE 01:26:26 10° NE visible
28 Jul -0.3 02:58:35 10° NW 03:00:45 16° N 03:02:55 10° NE visible
28 Jul -0.5 04:35:54 10° NW 04:38:25 19° NNE 04:40:56 10° ENE visible
29 Jul -0.6 02:11:22 17° NNW 02:11:42 18° NNW 02:14:04 10° NNE visible
29 Jul -0.3 03:47:07 10° NNW 03:49:23 17° N 03:51:39 10° NE visible
30 Jul -0.2 01:24:12 16° NNE 01:24:12 16° NNE 01:25:19 10° NE visible
30 Jul -0.2 02:58:13 10° NW 03:00:19 15° N 03:02:24 10° NE visible
30 Jul -1.2 04:34:48 10° NW 04:37:49 30° NNE 04:40:50 10° E visible
31 Jul -0.2 02:09:56 13° NNW 02:11:14 15° N 02:13:18 10° NE visible
31 Jul -0.7 03:46:06 10° NW 03:48:51 23° NNE 03:51:36 10° ENE visible
01 Aug -0.1 01:22:55 15° N 01:22:55 15° N 01:24:20 10° NNE visible
01 Aug -0.4 02:57:21 10° NNW 02:59:49 19° NNE 03:02:17 10° ENE visible
01 Aug -2.7 04:33:42 10° NW 04:37:03 63° NNE 04:40:23 10° ESE visible
02 Aug -0.2 02:09:05 12° NNW 02:10:45 16° N 02:12:58 10° NE visible
02 Aug -1.8 03:44:57 10° NW 03:48:09 40° NNE 03:51:21 10° E visible
02 Aug -3.4 22:03:40 10° SW 22:07:00 83° SE 22:08:05 40° ENE visible
03 Aug 0.1 01:23:21 12° NE 01:23:21 12° NE 01:23:44 10° NE visible
03 Aug -1.2 02:56:22 11° NW 02:59:12 28° NNE 03:02:10 10° E visible
03 Aug -3.1 04:32:47 10° WNW 04:36:03 48° SW 04:39:18 10° SE visible
03 Aug -3.0 21:15:01 10° SSW 21:18:12 46° SE 21:21:26 10° ENE visible
03 Aug -1.2 22:52:05 10° W 22:55:02 28° NNW 22:57:07 16° NNE visible
04 Aug -3.4 03:46:09 40° WNW 03:47:15 86° SW 03:50:37 10° SE visible
04 Aug -1.9 22:02:54 10° W 22:06:05 41° NNW 22:09:17 10° NE visible
04 Aug -0.3 23:41:15 10° NW 23:43:28 16° N 23:43:56 16° N visible
05 Aug -2.8 21:13:52 10° WSW 21:17:10 65° NNW 21:20:30 10° NE visible
05 Aug -0.4 22:51:56 10° WNW 22:54:23 19° NNW 22:56:51 10° NNE visible
06 Aug 0.2 00:29:53 10° NNW 00:29:57 10° NNW 00:29:57 10° NNW visible
06 Aug -0.8 22:02:36 10° WNW 22:05:20 23° NNW 22:08:05 10° NE visible
06 Aug -0.2 23:40:53 10° NW 23:42:50 15° N 23:42:50 15° N visible
